Weather History for Monticello, AR

Change the Weather History Date:

Sunday, October 7, 2012

  Actual Average Record
Temperature  
Mean Temperature 54 °F -  
Max Temperature 62 °F 77 °F 91 °F (1962)
Min Temperature 46 °F 51 °F 30 °F (1978)
Degree Days  
Heating Degree Days 12    
Growing Degree Days 4 (Base 50)    
Moisture  
Dew Point 42 °F    
Average Humidity 70    
Maximum Humidity 90    
Minimum Humidity 46    
Precipitation  
Precipitation 0.32 in - - ()
Sea Level Pressure  
Sea Level Pressure 30.22 in    
Wind  
Wind Speed 5 mph (NNE)    
Max Wind Speed 13 mph    
Max Gust Speed 21 mph    
Visibility 9 miles    
Events Rain    
Averages and records for this station are not official NWS values.
T = Trace of Precipitation, MM = Missing Value Source: NWS Daily Summary

Daily Weather History Graph

Daily Weather History Graph

Search for Another Location

Airport:

Trip Planner

Search our weather history database for the weather conditions in past years. The results will help you decide how hot, cold, wet, or windy it might be!

Date:

Astronomy

Oct. 07, 2012 Rise Set
Actual Time 7:06 AM CDT 6:42 PM CDT
Civil Twilight 6:41 AM CDT 7:07 PM CDT
Nautical Twilight 6:12 AM CDT 7:36 PM CDT
Astronomical Twilight 5:43 AM CDT 8:05 PM CDT
Moon No Moon Rise 1:31 PM CDT (10/7)
Length of Visible Light 12h 26m
Length of Day
11h 36m
Waning Gibbous, 56% of the Moon is Illuminated
Oct 7
Waning Gibbous
Oct 8
Last Quarter
Oct 15
New
Oct 21
First Quarter
Oct 29
Full

Hourly Weather History & Observations

Time (CDT) Temp. Dew Point Humidity Pressure Visibility Wind Dir Wind Speed Gust Speed Precip Events Conditions
12:53 AM 46.9 °F 41.0 °F 80% 30.22 in 10.0 mi NNE 5.8 mph - 0.00 in Rain Light Rain
1:53 AM 46.9 °F 42.1 °F 83% 30.21 in 10.0 mi Variable 3.5 mph - 0.00 in   Overcast
2:53 AM 48.0 °F 42.1 °F 80% 30.21 in 10.0 mi Calm Calm - N/A   Overcast
3:53 AM 48.0 °F 39.9 °F 74% 30.22 in 10.0 mi North 3.5 mph - N/A   Overcast
4:53 AM 48.0 °F 39.9 °F 74% 30.22 in 10.0 mi Variable 3.5 mph - N/A   Overcast
5:53 AM 46.9 °F 41.0 °F 80% 30.23 in 10.0 mi Variable 4.6 mph - N/A   Overcast
6:53 AM 46.9 °F 41.0 °F 80% 30.25 in 10.0 mi Variable 4.6 mph - N/A   Overcast
7:53 AM 46.9 °F 41.0 °F 80% 30.27 in 10.0 mi Variable 4.6 mph - N/A   Overcast
8:53 AM 48.9 °F 41.0 °F 74% 30.27 in 10.0 mi NE 9.2 mph - N/A   Scattered Clouds
9:53 AM 51.1 °F 39.9 °F 66% 30.28 in 10.0 mi NE 12.7 mph 20.7 mph N/A   Clear
10:53 AM 53.1 °F 39.9 °F 61% 30.28 in 10.0 mi Variable 6.9 mph - N/A   Clear
11:53 AM 57.0 °F 39.9 °F 53% 30.26 in 10.0 mi NE 9.2 mph - N/A   Clear
12:53 PM 59.0 °F 41.0 °F 51% 30.24 in 10.0 mi ENE 6.9 mph - N/A   Partly Cloudy
1:53 PM 61.0 °F 39.9 °F 46% 30.21 in 10.0 mi ENE 11.5 mph 16.1 mph N/A   Partly Cloudy
2:53 PM 61.0 °F 41.0 °F 48% 30.19 in 10.0 mi NE 6.9 mph - N/A   Partly Cloudy
3:53 PM 60.1 °F 41.0 °F 49% 30.18 in 10.0 mi NE 9.2 mph - N/A   Clear
4:53 PM 57.9 °F 41.0 °F 53% 30.17 in 10.0 mi NNE 4.6 mph - N/A   Mostly Cloudy
5:53 PM 57.0 °F 42.1 °F 57% 30.17 in 10.0 mi Calm Calm - N/A   Overcast
6:53 PM 55.0 °F 41.0 °F 59% 30.18 in 10.0 mi Calm Calm - N/A   Overcast
7:53 PM 50.0 °F 45.0 °F 83% 30.20 in 4.0 mi NW 3.5 mph - 0.06 in Rain Heavy Rain
8:53 PM 48.9 °F 46.0 °F 90% 30.22 in 10.0 mi Calm Calm - 0.05 in Rain Light Rain
9:53 PM 48.9 °F 45.0 °F 86% 30.19 in 10.0 mi Calm Calm - 0.03 in Rain Light Rain
10:53 PM 48.0 °F 45.0 °F 89% 30.21 in 6.0 mi NNE 3.5 mph - 0.06 in Rain Rain
11:53 PM 46.9 °F 43.0 °F 86% 30.23 in 3.0 mi WNW 3.5 mph - 0.12 in Rain Heavy Rain